Time,TemperatureF,DewpointF,PressureIn,WindDirection,WindDirectionDegrees,WindSpeedMPH,WindSpeedGustMPH,Humidity,HourlyPrecipIn,Conditions,Clouds,dailyrainin,SoftwareType,DateUTC
2013-06-03 00:02:00,68.1,50.8,29.61,SW,214,3.0,4.0,54,0.00,,CLR,0.00,VWS V14.01,2013-06-03 07:02:00,
2013-06-03 00:07:00,67.9,50.7,29.61,South,176,3.0,4.0,54,0.00,,CLR,0.00,VWS V14.01,2013-06-03 07:07:00,
2013-06-03 00:13:00,67.7,50.5,29.61,SSW,201,2.0,5.0,54,0.00,,CLR,0.00,VWS V14.01,2013-06-03 07:13:00,
2013-06-03 00:18:00,67.5,50.8,29.61,South,183,1.0,5.0,55,0.00,,CLR,0.00,VWS V14.01,2013-06-03 07:18:00,
2013-06-03 00:23:00,67.2,50.5,29.61,South,188,4.0,5.0,55,0.00,,CLR,0.00,VWS V14.01,2013-06-03 07:23:00,
2013-06-03 00:28:00,67.0,50.3,29.61,South,172,2.0,6.0,55,0.00,,CLR,0.00,VWS V14.01,2013-06-03 07:28:00,
2013-06-03 00:33:00,66.8,50.6,29.61,SE,135,2.0,3.0,56,0.00,,CLR,0.00,VWS V14.01,2013-06-03 07:33:00,
2013-06-03 00:38:00,66.7,50.5,29.61,SSW,194,1.0,4.0,56,0.00,,CLR,0.00,VWS V14.01,2013-06-03 07:38:00,
2013-06-03 00:43:00,66.4,50.2,29.61,SW,214,2.0,5.0,56,0.00,,CLR,0.00,VWS V14.01,2013-06-03 07:43:00,
2013-06-03 00:48:00,66.3,50.2,29.61,South,190,1.0,5.0,56,0.00,,CLR,0.00,VWS V14.01,2013-06-03 07:48:00,
2013-06-03 00:53:00,66.2,50.5,29.61,South,188,2.0,5.0,57,0.00,,CLR,0.00,VWS V14.01,2013-06-03 07:53:00,
2013-06-03 00:58:00,65.9,50.2,29.61,SSW,204,2.0,5.0,57,0.00,,CLR,0.00,VWS V14.01,2013-06-03 07:58:00,
2013-06-03 01:03:00,65.8,50.6,29.61,SW,235,2.0,5.0,58,0.00,,CLR,0.00,VWS V14.01,2013-06-03 08:03:00,
2013-06-03 01:08:00,65.6,50.4,29.62,South,184,3.0,5.0,58,0.00,,CLR,0.00,VWS V14.01,2013-06-03 08:08:00,
2013-06-03 01:13:00,65.4,50.2,29.61,WSW,249,1.0,6.0,58,0.00,,CLR,0.00,VWS V14.01,2013-06-03 08:13:00,
2013-06-03 01:18:00,65.4,50.2,29.61,South,181,2.0,6.0,58,0.00,,CLR,0.00,VWS V14.01,2013-06-03 08:18:00,
2013-06-03 01:23:00,65.7,50.5,29.61,SSE,159,2.0,6.0,58,0.00,,CLR,0.00,VWS V14.01,2013-06-03 08:23:00,
2013-06-03 01:28:00,65.8,50.2,29.61,SSW,194,4.0,6.0,57,0.00,,CLR,0.00,VWS V14.01,2013-06-03 08:28:00,
2013-06-03 01:33:00,65.9,50.2,29.61,South,170,3.0,4.0,57,0.00,,CLR,0.00,VWS V14.01,2013-06-03 08:33:00,
2013-06-03 01:38:00,65.9,50.2,29.61,SSW,195,4.0,5.0,57,0.00,,CLR,0.00,VWS V14.01,2013-06-03 08:38:00,
2013-06-03 01:43:00,65.9,50.2,29.61,ESE,122,1.0,5.0,57,0.00,,CLR,0.00,VWS V14.01,2013-06-03 08:43:00,
2013-06-03 01:48:00,65.8,50.2,29.62,SSE,159,1.0,5.0,57,0.00,,CLR,0.00,VWS V14.01,2013-06-03 08:48:00,
2013-06-03 01:53:00,65.7,50.5,29.62,SE,139,0.0,5.0,58,0.00,,CLR,0.00,VWS V14.01,2013-06-03 08:53:00,
2013-06-03 01:58:00,65.6,50.4,29.62,South,177,0.0,5.0,58,0.00,,CLR,0.00,VWS V14.01,2013-06-03 08:58:00,
2013-06-03 02:03:00,65.6,50.4,29.62,South,181,0.0,1.0,58,0.00,,CLR,0.00,VWS V14.01,2013-06-03 09:03:00,
2013-06-03 02:08:00,65.4,50.2,29.62,NW,323,0.0,2.0,58,0.00,,CLR,0.00,VWS V14.01,2013-06-03 09:08:00,
2013-06-03 02:13:00,65.4,50.2,29.63,WNW,288,0.0,2.0,58,0.00,,CLR,0.00,VWS V14.01,2013-06-03 09:13:00,
2013-06-03 02:18:00,65.2,50.5,29.63,NE,36,0.0,2.0,59,0.00,,CLR,0.00,VWS V14.01,2013-06-03 09:18:00,
2013-06-03 02:23:00,64.9,50.7,29.63,South,174,0.0,2.0,60,0.00,,CLR,0.00,VWS V14.01,2013-06-03 09:23:00,
2013-06-03 02:28:00,64.7,51.0,29.63,WSW,252,0.0,2.0,61,0.00,,CLR,0.00,VWS V14.01,2013-06-03 09:28:00,
2013-06-03 02:33:00,64.6,50.9,29.63,SSW,207,0.0,1.0,61,0.00,,CLR,0.00,VWS V14.01,2013-06-03 09:33:00,
2013-06-03 02:38:00,64.6,50.4,29.63,SSW,200,0.0,3.0,60,0.00,,CLR,0.00,VWS V14.01,2013-06-03 09:38:00,
2013-06-03 02:43:00,64.6,50.4,29.63,SSE,160,0.0,3.0,60,0.00,,CLR,0.00,VWS V14.01,2013-06-03 09:43:00,
2013-06-03 02:48:00,64.6,50.9,29.64,South,188,2.0,3.0,61,0.00,,CLR,0.00,VWS V14.01,2013-06-03 09:48:00,
2013-06-03 02:53:00,64.5,50.8,29.64,South,181,1.0,3.0,61,0.00,,CLR,0.00,VWS V14.01,2013-06-03 09:53:00,
2013-06-03 02:58:00,64.2,50.5,29.64,SSW,193,0.0,3.0,61,0.00,,CLR,0.00,VWS V14.01,2013-06-03 09:58:00,
2013-06-03 03:03:00,63.9,50.6,29.64,SSE,161,0.0,3.0,62,0.00,,CLR,0.00,VWS V14.01,2013-06-03 10:03:00,
2013-06-03 03:08:00,64.0,50.7,29.64,SW,214,0.0,4.0,62,0.00,,CLR,0.00,VWS V14.01,2013-06-03 10:08:00,
2013-06-03 03:13:00,63.9,50.6,29.64,SSE,150,0.0,4.0,62,0.00,,CLR,0.00,VWS V14.01,2013-06-03 10:13:00,
2013-06-03 03:18:00,63.9,50.6,29.64,South,177,1.0,4.0,62,0.00,,CLR,0.00,VWS V14.01,2013-06-03 10:18:00,
2013-06-03 03:24:00,63.9,50.6,29.64,SSE,166,0.0,4.0,62,0.00,,CLR,0.00,VWS V14.01,2013-06-03 10:24:00,
2013-06-03 03:29:00,64.0,50.7,29.64,SSW,195,0.0,4.0,62,0.00,,CLR,0.00,VWS V14.01,2013-06-03 10:29:00,
2013-06-03 03:34:00,63.9,50.6,29.64,SSW,204,1.0,2.0,62,0.00,,CLR,0.00,VWS V14.01,2013-06-03 10:34:00,
2013-06-03 03:39:00,63.8,50.5,29.64,SW,219,2.0,3.0,62,0.00,,CLR,0.00,VWS V14.01,2013-06-03 10:39:00,
2013-06-03 03:44:00,63.7,50.5,29.64,SSW,203,2.0,4.0,62,0.00,,CLR,0.00,VWS V14.01,2013-06-03 10:44:00,
2013-06-03 03:49:00,63.5,50.7,29.64,SSW,197,2.0,5.0,63,0.00,,CLR,0.00,VWS V14.01,2013-06-03 10:49:00,
2013-06-03 03:54:00,63.5,50.7,29.64,SSW,200,3.0,5.0,63,0.00,,CLR,0.00,VWS V14.01,2013-06-03 10:54:00,
2013-06-03 03:59:00,63.5,50.7,29.64,SSW,197,2.0,5.0,63,0.00,,CLR,0.00,VWS V14.01,2013-06-03 10:59:00,
2013-06-03 04:04:00,63.4,50.6,29.64,South,180,4.0,5.0,63,0.00,,CLR,0.00,VWS V14.01,2013-06-03 11:04:00,
2013-06-03 04:09:00,63.3,50.9,29.64,SSE,167,2.0,7.0,64,0.00,,CLR,0.00,VWS V14.01,2013-06-03 11:09:00,
2013-06-03 04:14:00,63.1,50.7,29.64,SSE,167,2.0,7.0,64,0.00,,CLR,0.00,VWS V14.01,2013-06-03 11:14:00,
2013-06-03 04:19:00,63.0,51.1,29.64,SSW,194,1.0,7.0,65,0.00,,CLR,0.00,VWS V14.01,2013-06-03 11:19:00,
2013-06-03 04:24:00,62.9,51.0,29.64,SW,215,1.0,7.0,65,0.00,,CLR,0.00,VWS V14.01,2013-06-03 11:24:00,
2013-06-03 04:29:00,62.9,51.0,29.64,ESE,117,0.0,7.0,65,0.00,,CLR,0.00,VWS V14.01,2013-06-03 11:29:00,
2013-06-03 04:34:00,62.9,51.0,29.64,South,173,1.0,1.0,65,0.00,,CLR,0.00,VWS V14.01,2013-06-03 11:34:00,
2013-06-03 04:39:00,62.8,50.9,29.64,South,169,0.0,1.0,65,0.00,,CLR,0.00,VWS V14.01,2013-06-03 11:39:00,
2013-06-03 04:44:00,62.8,51.3,29.64,SSE,159,0.0,1.0,66,0.00,,CLR,0.00,VWS V14.01,2013-06-03 11:44:00,
2013-06-03 04:49:00,62.7,51.2,29.65,SSW,201,0.0,1.0,66,0.00,,CLR,0.00,VWS V14.01,2013-06-03 11:49:00,
2013-06-03 04:54:00,62.6,51.1,29.65,SSE,152,0.0,1.0,66,0.00,,CLR,0.00,VWS V14.01,2013-06-03 11:54:00,
2013-06-03 04:59:00,62.6,51.1,29.65,South,190,0.0,1.0,66,0.00,,CLR,0.00,VWS V14.01,2013-06-03 11:59:00,
2013-06-03 05:04:00,62.6,50.7,29.65,South,172,0.0,1.0,65,0.00,,CLR,0.00,VWS V14.01,2013-06-03 12:04:00,
2013-06-03 05:09:00,62.5,50.6,29.65,SSE,153,0.0,1.0,65,0.00,,CLR,0.00,VWS V14.01,2013-06-03 12:09:00,
2013-06-03 05:14:00,62.4,50.5,29.65,South,179,0.0,1.0,65,0.00,,CLR,0.00,VWS V14.01,2013-06-03 12:14:00,
2013-06-03 05:19:00,62.4,50.9,29.65,South,179,0.0,1.0,66,0.00,,CLR,0.00,VWS V14.01,2013-06-03 12:19:00,
2013-06-03 05:24:00,62.3,50.4,29.65,South,174,0.0,1.0,65,0.00,,CLR,0.00,VWS V14.01,2013-06-03 12:24:00,
2013-06-03 05:29:00,62.3,50.4,29.65,SSW,198,0.0,1.0,65,0.00,,CLR,0.00,VWS V14.01,2013-06-03 12:29:00,
2013-06-03 05:34:00,62.3,50.4,29.65,SSW,197,0.0,0.0,65,0.00,,CLR,0.00,VWS V14.01,2013-06-03 12:34:00,
2013-06-03 05:39:00,62.3,50.4,29.65,SSW,200,0.0,2.0,65,0.00,,CLR,0.00,VWS V14.01,2013-06-03 12:39:00,
2013-06-03 05:44:00,62.5,50.2,29.65,SE,146,0.0,2.0,64,0.00,,CLR,0.00,VWS V14.01,2013-06-03 12:44:00,
2013-06-03 05:49:00,62.4,50.5,29.66,SSE,154,0.0,2.0,65,0.00,,CLR,0.00,VWS V14.01,2013-06-03 12:49:00,
2013-06-03 05:54:00,62.3,50.4,29.66,SSW,195,1.0,2.0,65,0.00,,CLR,0.00,VWS V14.01,2013-06-03 12:54:00,
2013-06-03 05:59:00,62.1,50.6,29.66,SSE,163,0.0,2.0,66,0.00,,CLR,0.00,VWS V14.01,2013-06-03 12:59:00,
2013-06-03 06:04:00,61.8,50.7,29.66,SSW,194,2.0,3.0,67,0.00,,CLR,0.00,VWS V14.01,2013-06-03 13:04:00,
2013-06-03 06:09:00,61.8,50.7,29.66,SW,217,1.0,3.0,67,0.00,,CLR,0.00,VWS V14.01,2013-06-03 13:09:00,
2013-06-03 06:14:00,61.7,50.6,29.66,SE,143,0.0,3.0,67,0.00,,CLR,0.00,VWS V14.01,2013-06-03 13:14:00,
2013-06-03 06:19:00,61.7,50.6,29.66,South,186,1.0,3.0,67,0.00,,CLR,0.00,VWS V14.01,2013-06-03 13:19:00,
2013-06-03 06:24:00,61.8,50.7,29.66,SSW,197,0.0,3.0,67,0.00,,CLR,0.00,VWS V14.01,2013-06-03 13:24:00,
2013-06-03 06:29:00,61.9,50.8,29.67,SSW,198,0.0,3.0,67,0.00,,CLR,0.00,VWS V14.01,2013-06-03 13:29:00,
2013-06-03 06:34:00,62.1,51.0,29.67,South,174,0.0,0.0,67,0.00,,CLR,0.00,VWS V14.01,2013-06-03 13:34:00,
2013-06-03 06:39:00,62.5,51.0,29.67,SSW,211,0.0,1.0,66,0.00,,CLR,0.00,VWS V14.01,2013-06-03 13:39:00,
2013-06-03 06:44:00,62.9,51.4,29.67,SSW,211,0.0,1.0,66,0.00,,CLR,0.00,VWS V14.01,2013-06-03 13:44:00,
2013-06-03 06:49:00,63.2,51.7,29.67,SSE,166,0.0,1.0,66,0.00,,CLR,0.00,VWS V14.01,2013-06-03 13:49:00,
2013-06-03 06:54:00,63.5,51.1,29.68,SSW,194,1.0,1.0,64,0.00,,CLR,0.00,VWS V14.01,2013-06-03 13:54:00,
2013-06-03 06:59:00,63.9,51.1,29.68,South,176,1.0,3.0,63,0.00,,CLR,0.00,VWS V14.01,2013-06-03 13:59:00,
2013-06-03 07:04:00,64.2,51.4,29.68,South,187,0.0,2.0,63,0.00,,CLR,0.00,VWS V14.01,2013-06-03 14:04:00,
2013-06-03 07:09:00,64.5,51.6,29.68,SSE,158,0.0,2.0,63,0.00,,CLR,0.00,VWS V14.01,2013-06-03 14:09:00,
2013-06-03 07:14:00,65.0,51.7,29.69,SSE,159,2.0,2.0,62,0.00,,CLR,0.00,VWS V14.01,2013-06-03 14:14:00,
2013-06-03 07:19:00,65.8,52.0,29.69,South,169,0.0,2.0,61,0.00,,CLR,0.00,VWS V14.01,2013-06-03 14:19:00,
2013-06-03 07:24:00,66.6,51.8,29.69,SSW,201,0.0,3.0,59,0.00,,CLR,0.00,VWS V14.01,2013-06-03 14:24:00,
2013-06-03 07:29:00,67.4,52.1,29.69,SSW,205,0.0,3.0,58,0.00,,CLR,0.00,VWS V14.01,2013-06-03 14:29:00,
2013-06-03 07:34:00,68.2,52.9,29.69,SE,146,0.0,1.0,58,0.00,,CLR,0.00,VWS V14.01,2013-06-03 14:34:00,
2013-06-03 07:39:00,69.0,52.7,29.69,SSE,157,0.0,2.0,56,0.00,,CLR,0.00,VWS V14.01,2013-06-03 14:39:00,
2013-06-03 07:44:00,69.7,52.3,29.69,SE,137,0.0,2.0,54,0.00,,CLR,0.00,VWS V14.01,2013-06-03 14:44:00,
2013-06-03 07:49:00,70.3,52.9,29.69,SSE,153,0.0,2.0,54,0.00,,CLR,0.00,VWS V14.01,2013-06-03 14:49:00,
2013-06-03 07:54:00,70.5,52.0,29.69,SSE,152,1.0,4.0,52,0.00,,CLR,0.00,VWS V14.01,2013-06-03 14:54:00,
2013-06-03 07:59:00,70.4,51.4,29.70,SSW,204,3.0,5.0,51,0.00,,CLR,0.00,VWS V14.01,2013-06-03 14:59:00,
2013-06-03 08:04:00,70.6,52.1,29.70,South,179,1.0,4.0,52,0.00,,CLR,0.00,VWS V14.01,2013-06-03 15:04:00,
2013-06-03 08:09:00,70.8,52.3,29.70,SSW,201,0.0,5.0,52,0.00,,CLR,0.00,VWS V14.01,2013-06-03 15:09:00,
2013-06-03 08:14:00,71.2,52.7,29.70,South,172,1.0,5.0,52,0.00,,CLR,0.00,VWS V14.01,2013-06-03 15:14:00,
2013-06-03 08:19:00,71.5,52.4,29.70,SSW,197,2.0,5.0,51,0.00,,CLR,0.00,VWS V14.01,2013-06-03 15:19:00,
2013-06-03 08:24:00,72.0,52.9,29.70,SSW,198,0.0,5.0,51,0.00,,CLR,0.00,VWS V14.01,2013-06-03 15:24:00,
2013-06-03 08:29:00,72.6,52.9,29.70,South,188,0.0,5.0,50,0.00,,CLR,0.00,VWS V14.01,2013-06-03 15:29:00,
2013-06-03 08:35:00,73.0,53.3,29.70,SSW,207,0.0,3.0,50,0.00,,CLR,0.00,VWS V14.01,2013-06-03 15:35:00,
2013-06-03 08:39:00,73.6,53.3,29.70,South,172,1.0,5.0,49,0.00,,CLR,0.00,VWS V14.01,2013-06-03 15:39:00,
2013-06-03 08:45:00,74.3,53.9,29.70,SSW,201,2.0,5.0,49,0.00,,CLR,0.00,VWS V14.01,2013-06-03 15:45:00,
2013-06-03 08:50:00,74.9,53.3,29.70,South,178,3.0,5.0,47,0.00,,CLR,0.00,VWS V14.01,2013-06-03 15:50:00,
2013-06-03 08:55:00,75.3,53.1,29.71,SSE,149,0.0,5.0,46,0.00,,CLR,0.00,VWS V14.01,2013-06-03 15:55:00,
2013-06-03 09:00:00,76.1,53.2,29.71,SSW,201,3.0,5.0,45,0.00,,CLR,0.00,VWS V14.01,2013-06-03 16:00:00,
2013-06-03 09:05:00,76.6,53.7,29.70,South,178,0.0,3.0,45,0.00,,CLR,0.00,VWS V14.01,2013-06-03 16:05:00,
2013-06-03 09:10:00,77.5,53.9,29.71,South,184,2.0,3.0,44,0.00,,CLR,0.00,VWS V14.01,2013-06-03 16:10:00,
2013-06-03 09:15:00,78.0,53.7,29.71,South,181,0.0,4.0,43,0.00,,CLR,0.00,VWS V14.01,2013-06-03 16:15:00,
2013-06-03 09:20:00,78.2,53.2,29.71,South,183,1.0,4.0,42,0.00,,CLR,0.00,VWS V14.01,2013-06-03 16:20:00,
2013-06-03 09:25:00,78.8,53.8,29.71,SSW,194,1.0,4.0,42,0.00,,CLR,0.00,VWS V14.01,2013-06-03 16:25:00,
2013-06-03 09:30:00,79.2,54.2,29.71,SSW,211,2.0,5.0,42,0.00,,CLR,0.00,VWS V14.01,2013-06-03 16:30:00,
2013-06-03 09:35:00,79.5,53.1,29.71,SSW,208,1.0,3.0,40,0.00,,CLR,0.00,VWS V14.01,2013-06-03 16:35:00,
2013-06-03 09:40:00,79.7,53.3,29.70,SE,146,1.0,4.0,40,0.00,,CLR,0.00,VWS V14.01,2013-06-03 16:40:00,
2013-06-03 09:45:00,80.0,54.2,29.71,SSE,150,0.0,4.0,41,0.00,,CLR,0.00,VWS V14.01,2013-06-03 16:45:00,
2013-06-03 09:50:00,81.0,53.7,29.71,SE,129,0.0,4.0,39,0.00,,CLR,0.00,VWS V14.01,2013-06-03 16:50:00,
2013-06-03 09:55:00,81.6,54.3,29.71,South,173,2.0,4.0,39,0.00,,CLR,0.00,VWS V14.01,2013-06-03 16:55:00,
2013-06-03 10:00:00,81.7,53.7,29.71,SE,135,1.0,4.0,38,0.00,,CLR,0.00,VWS V14.01,2013-06-03 17:00:00,
2013-06-03 10:05:00,81.8,54.5,29.71,East,86,0.0,3.0,39,0.00,,CLR,0.00,VWS V14.01,2013-06-03 17:05:00,
2013-06-03 10:10:00,82.5,54.4,29.71,SW,214,0.0,3.0,38,0.00,,CLR,0.00,VWS V14.01,2013-06-03 17:10:00,
2013-06-03 10:15:00,83.5,55.2,29.71,NNE,15,3.0,3.0,38,0.00,,CLR,0.00,VWS V14.01,2013-06-03 17:15:00,
2013-06-03 10:20:00,85.0,49.2,29.71,SE,127,0.0,4.0,29,0.00,,CLR,0.00,VWS V14.01,2013-06-03 17:20:00,
2013-06-03 10:25:00,86.4,49.5,29.71,NE,41,2.0,6.0,28,0.00,,CLR,0.00,VWS V14.01,2013-06-03 17:25:00,
2013-06-03 10:30:00,87.0,48.0,29.70,NE,56,4.0,6.0,26,0.00,,CLR,0.00,VWS V14.01,2013-06-03 17:30:00,
2013-06-03 10:35:00,87.2,50.2,29.70,NE,37,4.0,6.0,28,0.00,,CLR,0.00,VWS V14.01,2013-06-03 17:35:00,
2013-06-03 10:40:00,87.7,50.6,29.70,North,10,3.0,7.0,28,0.00,,CLR,0.00,VWS V14.01,2013-06-03 17:40:00,
2013-06-03 10:45:00,87.7,49.6,29.70,NNE,15,3.0,10.0,27,0.00,,CLR,0.00,VWS V14.01,2013-06-03 17:45:00,
2013-06-03 10:50:00,88.5,49.3,29.70,NE,49,3.0,10.0,26,0.00,,CLR,0.00,VWS V14.01,2013-06-03 17:50:00,
2013-06-03 10:55:00,88.8,50.5,29.70,ENE,65,4.0,10.0,27,0.00,,CLR,0.00,VWS V14.01,2013-06-03 17:55:00,
2013-06-03 11:00:00,89.1,51.8,29.70,NE,46,1.0,10.0,28,0.00,,CLR,0.00,VWS V14.01,2013-06-03 18:00:00,
2013-06-03 11:05:00,89.0,49.7,29.70,SSW,195,1.0,6.0,26,0.00,,CLR,0.00,VWS V14.01,2013-06-03 18:05:00,
2013-06-03 11:10:00,89.0,48.7,29.70,NE,49,6.0,10.0,25,0.00,,CLR,0.00,VWS V14.01,2013-06-03 18:10:00,
2013-06-03 11:15:00,89.4,50.0,29.70,NNE,13,1.0,10.0,26,0.00,,CLR,0.00,VWS V14.01,2013-06-03 18:15:00,
2013-06-03 11:20:00,90.1,49.6,29.70,NNW,339,1.0,10.0,25,0.00,,CLR,0.00,VWS V14.01,2013-06-03 18:20:00,
2013-06-03 11:25:00,90.4,49.8,29.70,North,353,1.0,10.0,25,0.00,,CLR,0.00,VWS V14.01,2013-06-03 18:25:00,
2013-06-03 11:30:00,91.1,51.5,29.70,NE,56,2.0,10.0,26,0.00,,CLR,0.00,VWS V14.01,2013-06-03 18:30:00,
2013-06-03 11:35:00,91.5,50.8,29.70,NNE,29,1.0,4.0,25,0.00,,CLR,0.00,VWS V14.01,2013-06-03 18:35:00,
2013-06-03 11:40:00,91.1,51.5,29.70,South,173,2.0,5.0,26,0.00,,CLR,0.00,VWS V14.01,2013-06-03 18:40:00,
2013-06-03 11:45:00,90.9,53.3,29.70,SSE,162,5.0,5.0,28,0.00,,CLR,0.00,VWS V14.01,2013-06-03 18:45:00,
2013-06-03 11:50:00,89.2,53.8,29.70,SW,215,4.0,7.0,30,0.00,,CLR,0.00,VWS V14.01,2013-06-03 18:50:00,
2013-06-03 11:55:00,87.9,53.5,29.70,SSE,159,2.0,7.0,31,0.00,,CLR,0.00,VWS V14.01,2013-06-03 18:55:00,
2013-06-03 12:00:00,87.3,53.9,29.70,SSW,201,4.0,7.0,32,0.00,,CLR,0.00,VWS V14.01,2013-06-03 19:00:00,
2013-06-03 12:05:00,87.0,53.6,29.70,South,176,4.0,6.0,32,0.00,,CLR,0.00,VWS V14.01,2013-06-03 19:05:00,
2013-06-03 12:10:00,87.5,54.0,29.70,SSE,153,2.0,6.0,32,0.00,,CLR,0.00,VWS V14.01,2013-06-03 19:10:00,
2013-06-03 12:15:00,87.6,54.1,29.70,SSE,162,2.0,8.0,32,0.00,,CLR,0.00,VWS V14.01,2013-06-03 19:15:00,
2013-06-03 12:20:00,87.5,54.9,29.70,WSW,252,0.0,8.0,33,0.00,,CLR,0.00,VWS V14.01,2013-06-03 19:20:00,
2013-06-03 12:25:00,87.9,54.4,29.70,SSE,155,1.0,8.0,32,0.00,,CLR,0.00,VWS V14.01,2013-06-03 19:25:00,
2013-06-03 12:30:00,88.2,53.8,29.70,SSE,149,2.0,8.0,31,0.00,,CLR,0.00,VWS V14.01,2013-06-03 19:30:00,
2013-06-03 12:35:00,88.3,53.9,29.70,South,188,4.0,6.0,31,0.00,,CLR,0.00,VWS V14.01,2013-06-03 19:35:00,
2013-06-03 12:40:00,88.4,54.8,29.70,South,170,1.0,6.0,32,0.00,,CLR,0.00,VWS V14.01,2013-06-03 19:40:00,
2013-06-03 12:45:00,88.5,54.0,29.70,SSE,156,8.0,8.0,31,0.00,,CLR,0.00,VWS V14.01,2013-06-03 19:45:00,
2013-06-03 12:50:00,88.1,54.6,29.70,SSW,195,4.0,8.0,32,0.00,,CLR,0.00,VWS V14.01,2013-06-03 19:50:00,
2013-06-03 12:55:00,87.9,54.4,29.70,SSW,208,5.0,8.0,32,0.00,,CLR,0.00,VWS V14.01,2013-06-03 19:55:00,
2013-06-03 13:00:00,87.9,55.2,29.70,SW,221,3.0,8.0,33,0.00,,CLR,0.00,VWS V14.01,2013-06-03 20:00:00,
2013-06-03 13:06:00,88.2,53.8,29.70,SSE,149,5.0,7.0,31,0.00,,CLR,0.00,VWS V14.01,2013-06-03 20:06:00,
2013-06-03 13:11:00,87.9,54.4,29.70,South,179,3.0,7.0,32,0.00,,CLR,0.00,VWS V14.01,2013-06-03 20:11:00,
2013-06-03 13:16:00,87.8,56.0,29.70,SSE,167,2.0,9.0,34,0.00,,CLR,0.00,VWS V14.01,2013-06-03 20:16:00,
2013-06-03 13:21:00,88.1,55.4,29.69,SSE,165,2.0,9.0,33,0.00,,CLR,0.00,VWS V14.01,2013-06-03 20:21:00,
2013-06-03 13:26:00,88.0,55.3,29.69,SW,214,6.0,9.0,33,0.00,,CLR,0.00,VWS V14.01,2013-06-03 20:26:00,
2013-06-03 13:31:00,88.6,55.0,29.69,SW,219,6.0,9.0,32,0.00,,CLR,0.00,VWS V14.01,2013-06-03 20:31:00,
2013-06-03 13:36:00,88.5,55.8,29.69,South,171,4.0,9.0,33,0.00,,CLR,0.00,VWS V14.01,2013-06-03 20:36:00,
2013-06-03 13:41:00,88.0,56.1,29.69,SSW,210,5.0,11.0,34,0.00,,CLR,0.00,VWS V14.01,2013-06-03 20:41:00,
2013-06-03 13:46:00,88.5,56.6,29.69,SSE,164,3.0,11.0,34,0.00,,CLR,0.00,VWS V14.01,2013-06-03 20:46:00,
2013-06-03 13:51:00,88.6,55.8,29.69,SW,219,6.0,11.0,33,0.00,,CLR,0.00,VWS V14.01,2013-06-03 20:51:00,
2013-06-03 13:56:00,88.3,56.4,29.69,South,174,5.0,11.0,34,0.00,,CLR,0.00,VWS V14.01,2013-06-03 20:56:00,
2013-06-03 14:01:00,88.0,56.1,29.69,South,186,4.0,11.0,34,0.00,,CLR,0.00,VWS V14.01,2013-06-03 21:01:00,
2013-06-03 14:06:00,88.3,56.4,29.69,SSW,195,3.0,7.0,34,0.00,,CLR,0.00,VWS V14.01,2013-06-03 21:06:00,
2013-06-03 14:11:00,87.9,56.1,29.69,South,180,7.0,11.0,34,0.00,,CLR,0.00,VWS V14.01,2013-06-03 21:11:00,
2013-06-03 14:16:00,87.7,55.9,29.69,SW,219,4.0,11.0,34,0.00,,CLR,0.00,VWS V14.01,2013-06-03 21:16:00,
2013-06-03 14:21:00,87.4,56.4,29.69,South,191,5.0,11.0,35,0.00,,CLR,0.00,VWS V14.01,2013-06-03 21:21:00,
2013-06-03 14:26:00,87.5,56.5,29.69,SSW,201,6.0,11.0,35,0.00,,CLR,0.00,VWS V14.01,2013-06-03 21:26:00,
2013-06-03 14:31:00,87.0,56.1,29.69,SE,141,5.0,6.0,35,0.00,,CLR,0.00,VWS V14.01,2013-06-03 21:31:00,
2013-06-03 14:36:00,86.9,56.0,29.69,SSW,213,5.0,10.0,35,0.00,,CLR,0.00,VWS V14.01,2013-06-03 21:36:00,
2013-06-03 14:41:00,87.4,56.4,29.69,SSW,193,6.0,10.0,35,0.00,,CLR,0.00,VWS V14.01,2013-06-03 21:41:00,
2013-06-03 14:46:00,87.4,56.4,29.69,South,183,6.0,10.0,35,0.00,,CLR,0.00,VWS V14.01,2013-06-03 21:46:00,
2013-06-03 14:51:00,87.5,56.5,29.69,ESE,115,3.0,10.0,35,0.00,,CLR,0.00,VWS V14.01,2013-06-03 21:51:00,
2013-06-03 14:57:00,87.4,56.4,29.69,East,92,4.0,10.0,35,0.00,,CLR,0.00,VWS V14.01,2013-06-03 21:57:00,
2013-06-03 15:02:00,87.2,56.2,29.68,SSW,194,4.0,10.0,35,0.00,,CLR,0.00,VWS V14.01,2013-06-03 22:02:00,
2013-06-03 15:07:00,87.3,56.3,29.68,SSW,203,5.0,10.0,35,0.00,,CLR,0.00,VWS V14.01,2013-06-03 22:07:00,
2013-06-03 15:12:00,87.4,56.4,29.68,South,173,4.0,10.0,35,0.00,,CLR,0.00,VWS V14.01,2013-06-03 22:12:00,
2013-06-03 15:17:00,87.7,55.9,29.68,East,96,2.0,10.0,34,0.00,,CLR,0.00,VWS V14.01,2013-06-03 22:17:00,
2013-06-03 15:22:00,87.8,56.0,29.68,South,188,5.0,11.0,34,0.00,,CLR,0.00,VWS V14.01,2013-06-03 22:22:00,
2013-06-03 15:27:00,87.9,56.1,29.68,SSE,159,6.0,11.0,34,0.00,,CLR,0.00,VWS V14.01,2013-06-03 22:27:00,
2013-06-03 15:32:00,88.0,56.9,29.68,East,98,4.0,8.0,35,0.00,,CLR,0.00,VWS V14.01,2013-06-03 22:32:00,
2013-06-03 15:37:00,88.0,56.1,29.68,SW,226,5.0,11.0,34,0.00,,CLR,0.00,VWS V14.01,2013-06-03 22:37:00,
2013-06-03 15:42:00,87.9,56.1,29.68,SSE,149,7.0,11.0,34,0.00,,CLR,0.00,VWS V14.01,2013-06-03 22:42:00,
2013-06-03 15:47:00,88.0,56.1,29.68,ESE,122,8.0,11.0,34,0.00,,CLR,0.00,VWS V14.01,2013-06-03 22:47:00,
2013-06-03 15:52:00,87.8,56.0,29.68,South,177,4.0,12.0,34,0.00,,CLR,0.00,VWS V14.01,2013-06-03 22:52:00,
2013-06-03 15:57:00,88.1,56.2,29.67,SSW,210,6.0,12.0,34,0.00,,CLR,0.00,VWS V14.01,2013-06-03 22:57:00,
2013-06-03 16:02:00,88.7,55.9,29.67,SSW,203,3.0,10.0,33,0.00,,CLR,0.00,VWS V14.01,2013-06-03 23:02:00,
2013-06-03 16:07:00,89.0,57.0,29.67,South,182,5.0,10.0,34,0.00,,CLR,0.00,VWS V14.01,2013-06-03 23:07:00,
2013-06-03 16:12:00,88.9,56.1,29.67,SSW,211,8.0,11.0,33,0.00,,CLR,0.00,VWS V14.01,2013-06-03 23:12:00,
2013-06-03 16:17:00,88.5,56.6,29.67,SE,133,3.0,11.0,34,0.00,,CLR,0.00,VWS V14.01,2013-06-03 23:17:00,
2013-06-03 16:22:00,88.1,56.2,29.67,SSW,207,4.0,11.0,34,0.00,,CLR,0.00,VWS V14.01,2013-06-03 23:22:00,
2013-06-03 16:27:00,88.4,56.5,29.67,SSW,194,3.0,11.0,34,0.00,,CLR,0.00,VWS V14.01,2013-06-03 23:27:00,
2013-06-03 16:32:00,89.0,56.2,29.67,SSW,201,6.0,9.0,33,0.00,,CLR,0.00,VWS V14.01,2013-06-03 23:32:00,
2013-06-03 17:02:00,88.3,55.6,29.67,South,179,2.0,9.0,33,0.00,,CLR,0.00,VWS V14.01,2013-06-04 00:02:00,
2013-06-03 17:07:00,88.6,55.8,29.67,South,186,6.0,9.0,33,0.00,,CLR,0.00,VWS V14.01,2013-06-04 00:07:00,
2013-06-03 17:12:00,88.3,55.6,29.67,South,191,6.0,11.0,33,0.00,,CLR,0.00,VWS V14.01,2013-06-04 00:12:00,
2013-06-03 17:17:00,88.1,56.2,29.67,SW,214,8.0,11.0,34,0.00,,CLR,0.00,VWS V14.01,2013-06-04 00:17:00,
2013-06-03 17:22:00,87.4,55.6,29.66,SW,228,6.0,13.0,34,0.00,,CLR,0.00,VWS V14.01,2013-06-04 00:22:00,
2013-06-03 17:27:00,87.2,56.2,29.66,SSE,152,3.0,13.0,35,0.00,,CLR,0.00,VWS V14.01,2013-06-04 00:27:00,
2013-06-03 17:32:00,86.9,56.0,29.66,SSE,150,4.0,9.0,35,0.00,,CLR,0.00,VWS V14.01,2013-06-04 00:32:00,
2013-06-03 17:37:00,87.2,56.2,29.66,SW,224,4.0,9.0,35,0.00,,CLR,0.00,VWS V14.01,2013-06-04 00:37:00,
2013-06-03 17:42:00,88.2,55.5,29.66,SSW,212,2.0,9.0,33,0.00,,CLR,0.00,VWS V14.01,2013-06-04 00:42:00,
2013-06-03 17:47:00,89.5,54.9,29.66,SSW,196,5.0,9.0,31,0.00,,CLR,0.00,VWS V14.01,2013-06-04 00:47:00,
2013-06-03 17:52:00,89.8,55.2,29.66,SW,221,2.0,9.0,31,0.00,,CLR,0.00,VWS V14.01,2013-06-04 00:52:00,
2013-06-03 17:57:00,90.0,54.4,29.66,SE,138,4.0,9.0,30,0.00,,CLR,0.00,VWS V14.01,2013-06-04 00:57:00,
2013-06-03 18:02:00,90.0,54.4,29.66,South,169,4.0,6.0,30,0.00,,CLR,0.00,VWS V14.01,2013-06-04 01:02:00,
2013-06-03 18:07:00,89.9,55.2,29.66,SSW,209,1.0,8.0,31,0.00,,CLR,0.00,VWS V14.01,2013-06-04 01:07:00,
2013-06-03 18:12:00,89.9,54.3,29.66,South,184,3.0,8.0,30,0.00,,CLR,0.00,VWS V14.01,2013-06-04 01:12:00,
2013-06-03 18:17:00,89.8,54.3,29.66,South,172,0.0,8.0,30,0.00,,CLR,0.00,VWS V14.01,2013-06-04 01:17:00,
2013-06-03 18:22:00,89.7,54.2,29.66,South,169,2.0,8.0,30,0.00,,CLR,0.00,VWS V14.01,2013-06-04 01:22:00,
2013-06-03 18:27:00,89.2,54.6,29.66,South,184,2.0,8.0,31,0.00,,CLR,0.00,VWS V14.01,2013-06-04 01:27:00,
2013-06-03 18:32:00,88.7,54.2,29.66,South,172,4.0,5.0,31,0.00,,CLR,0.00,VWS V14.01,2013-06-04 01:32:00,
2013-06-03 18:37:00,88.2,53.8,29.66,South,191,1.0,5.0,31,0.00,,CLR,0.00,VWS V14.01,2013-06-04 01:37:00,
2013-06-03 18:42:00,88.3,53.9,29.66,ENE,68,1.0,5.0,31,0.00,,CLR,0.00,VWS V14.01,2013-06-04 01:42:00,
2013-06-03 18:47:00,88.2,53.8,29.66,SW,218,1.0,5.0,31,0.00,,CLR,0.00,VWS V14.01,2013-06-04 01:47:00,
2013-06-03 18:52:00,87.6,53.3,29.66,SW,228,2.0,7.0,31,0.00,,CLR,0.00,VWS V14.01,2013-06-04 01:52:00,
2013-06-03 18:57:00,87.3,53.0,29.66,WNW,288,3.0,7.0,31,0.00,,CLR,0.00,VWS V14.01,2013-06-04 01:57:00,
2013-06-03 19:02:00,87.0,53.6,29.66,SSW,198,0.0,4.0,32,0.00,,CLR,0.00,VWS V14.01,2013-06-04 02:02:00,
2013-06-03 19:07:00,87.0,52.7,29.66,West,276,1.0,4.0,31,0.00,,CLR,0.00,VWS V14.01,2013-06-04 02:07:00,
2013-06-03 19:12:00,86.8,51.7,29.67,West,278,1.0,5.0,30,0.00,,CLR,0.00,VWS V14.01,2013-06-04 02:12:00,
2013-06-03 19:17:00,86.7,52.5,29.67,SSE,167,1.0,5.0,31,0.00,,CLR,0.00,VWS V14.01,2013-06-04 02:17:00,
2013-06-03 19:22:00,86.5,52.3,29.67,SSE,162,0.0,7.0,31,0.00,,CLR,0.00,VWS V14.01,2013-06-04 02:22:00,
2013-06-03 19:27:00,86.3,53.0,29.67,SE,125,0.0,7.0,32,0.00,,CLR,0.00,VWS V14.01,2013-06-04 02:27:00,
2013-06-03 19:32:00,85.9,52.7,29.67,SSW,211,1.0,4.0,32,0.00,,CLR,0.00,VWS V14.01,2013-06-04 02:32:00,
2013-06-03 19:38:00,85.1,53.6,29.67,South,173,1.0,4.0,34,0.00,,CLR,0.00,VWS V14.01,2013-06-04 02:38:00,
2013-06-03 19:43:00,84.4,53.0,29.68,SSW,213,1.0,5.0,34,0.00,,CLR,0.00,VWS V14.01,2013-06-04 02:43:00,
2013-06-03 19:48:00,83.5,53.0,29.68,SSW,207,1.0,5.0,35,0.00,,CLR,0.00,VWS V14.01,2013-06-04 02:48:00,
2013-06-03 19:53:00,82.2,52.6,29.68,South,176,2.0,5.0,36,0.00,,CLR,0.00,VWS V14.01,2013-06-04 02:53:00,
2013-06-03 19:58:00,81.0,53.0,29.68,South,187,6.0,6.0,38,0.00,,CLR,0.00,VWS V14.01,2013-06-04 02:58:00,
2013-06-03 20:03:00,79.7,52.6,29.68,SSE,156,4.0,7.0,39,0.00,,CLR,0.00,VWS V14.01,2013-06-04 03:03:00,
2013-06-03 20:08:00,78.5,52.2,29.68,SSE,153,2.0,8.0,40,0.00,,CLR,0.00,VWS V14.01,2013-06-04 03:08:00,
2013-06-03 20:13:00,77.5,52.6,29.68,SSE,150,1.0,8.0,42,0.00,,CLR,0.00,VWS V14.01,2013-06-04 03:13:00,
2013-06-03 20:18:00,76.8,52.0,29.68,SE,134,2.0,8.0,42,0.00,,CLR,0.00,VWS V14.01,2013-06-04 03:18:00,
2013-06-03 20:23:00,76.4,52.3,29.69,South,181,2.0,8.0,43,0.00,,CLR,0.00,VWS V14.01,2013-06-04 03:23:00,
2013-06-03 20:28:00,76.1,52.0,29.69,SSE,152,2.0,8.0,43,0.00,,CLR,0.00,VWS V14.01,2013-06-04 03:28:00,
2013-06-03 20:33:00,75.4,52.0,29.69,SSE,162,1.0,3.0,44,0.00,,CLR,0.00,VWS V14.01,2013-06-04 03:33:00,
2013-06-03 20:38:00,74.9,52.2,29.69,South,174,4.0,4.0,45,0.00,,CLR,0.00,VWS V14.01,2013-06-04 03:38:00,
2013-06-03 20:43:00,74.6,51.3,29.69,SSE,149,1.0,7.0,44,0.00,,CLR,0.00,VWS V14.01,2013-06-04 03:43:00,
2013-06-03 20:48:00,74.2,52.1,29.69,South,170,0.0,7.0,46,0.00,,CLR,0.00,VWS V14.01,2013-06-04 03:48:00,
2013-06-03 20:53:00,74.0,51.9,29.69,SSE,162,3.0,7.0,46,0.00,,CLR,0.00,VWS V14.01,2013-06-04 03:53:00,
2013-06-03 20:58:00,73.7,51.7,29.70,SSE,162,1.0,7.0,46,0.00,,CLR,0.00,VWS V14.01,2013-06-04 03:58:00,
2013-06-03 21:01:00,73.5,51.5,29.70,SSW,195,2.0,7.0,46,0.00,,CLR,0.00,VWS V14.01,2013-06-04 04:01:00,
2013-06-03 21:02:00,73.4,51.4,29.70,SE,138,1.0,2.0,46,0.00,,CLR,0.00,VWS V14.01,2013-06-04 04:02:00,
2013-06-03 21:07:00,73.5,50.9,29.69,SSW,193,1.0,5.0,45,0.00,,CLR,0.00,VWS V14.01,2013-06-04 04:07:00,
2013-06-03 21:12:00,73.7,50.5,29.70,SSE,160,0.0,5.0,44,0.00,,CLR,0.00,VWS V14.01,2013-06-04 04:12:00,
2013-06-03 21:17:00,73.7,51.1,29.70,SE,141,0.0,5.0,45,0.00,,CLR,0.00,VWS V14.01,2013-06-04 04:17:00,
2013-06-03 21:22:00,73.2,50.6,29.70,SSE,153,1.0,5.0,45,0.00,,CLR,0.00,VWS V14.01,2013-06-04 04:22:00,
2013-06-03 21:27:00,72.4,50.5,29.70,ESE,119,0.0,5.0,46,0.00,,CLR,0.00,VWS V14.01,2013-06-04 04:27:00,
2013-06-03 21:32:00,71.8,50.5,29.70,South,191,0.0,0.0,47,0.00,,CLR,0.00,VWS V14.01,2013-06-04 04:32:00,
2013-06-03 21:37:00,71.4,50.1,29.71,SSE,161,3.0,4.0,47,0.00,,CLR,0.00,VWS V14.01,2013-06-04 04:37:00,
2013-06-03 21:42:00,71.2,50.5,29.71,SE,136,1.0,4.0,48,0.00,,CLR,0.00,VWS V14.01,2013-06-04 04:42:00,
2013-06-03 21:47:00,71.1,50.4,29.71,South,173,1.0,4.0,48,0.00,,CLR,0.00,VWS V14.01,2013-06-04 04:47:00,
2013-06-03 21:52:00,70.8,50.2,29.71,SSE,160,2.0,4.0,48,0.00,,CLR,0.00,VWS V14.01,2013-06-04 04:52:00,
2013-06-03 21:57:00,70.6,50.0,29.71,South,172,1.0,4.0,48,0.00,,CLR,0.00,VWS V14.01,2013-06-04 04:57:00,
2013-06-03 22:02:00,70.5,49.9,29.71,SE,143,1.0,1.0,48,0.00,,CLR,0.00,VWS V14.01,2013-06-04 05:02:00,
2013-06-03 22:07:00,70.4,49.8,29.71,SSE,156,2.0,3.0,48,0.00,,CLR,0.00,VWS V14.01,2013-06-04 05:07:00,
2013-06-03 22:12:00,70.3,50.3,29.71,SSE,149,1.0,3.0,49,0.00,,CLR,0.00,VWS V14.01,2013-06-04 05:12:00,
2013-06-03 22:17:00,70.1,50.1,29.72,SSE,162,0.0,3.0,49,0.00,,CLR,0.00,VWS V14.01,2013-06-04 05:17:00,
2013-06-03 22:22:00,69.9,49.9,29.71,SSE,152,1.0,3.0,49,0.00,,CLR,0.00,VWS V14.01,2013-06-04 05:22:00,
2013-06-03 22:27:00,69.7,49.7,29.71,South,170,1.0,3.0,49,0.00,,CLR,0.00,VWS V14.01,2013-06-04 05:27:00,
2013-06-03 22:32:00,69.4,50.0,29.72,SE,129,1.0,2.0,50,0.00,,CLR,0.00,VWS V14.01,2013-06-04 05:32:00,
2013-06-03 22:37:00,68.9,49.5,29.71,SSE,166,0.0,2.0,50,0.00,,CLR,0.00,VWS V14.01,2013-06-04 05:37:00,
2013-06-03 22:42:00,68.7,49.9,29.72,ESE,105,0.0,2.0,51,0.00,,CLR,0.00,VWS V14.01,2013-06-04 05:42:00,
2013-06-03 22:47:00,68.6,49.8,29.72,SSW,208,0.0,2.0,51,0.00,,CLR,0.00,VWS V14.01,2013-06-04 05:47:00,
2013-06-03 22:52:00,68.3,49.5,29.72,SSW,208,0.0,2.0,51,0.00,,CLR,0.00,VWS V14.01,2013-06-04 05:52:00,
2013-06-03 22:57:00,67.9,49.7,29.72,SSW,208,0.0,2.0,52,0.00,,CLR,0.00,VWS V14.01,2013-06-04 05:57:00,
2013-06-03 23:02:00,67.5,49.3,29.72,SSW,208,0.0,0.0,52,0.00,,CLR,0.00,VWS V14.01,2013-06-04 06:02:00,
2013-06-03 23:07:00,67.4,49.7,29.72,SSW,207,0.0,1.0,53,0.00,,CLR,0.00,VWS V14.01,2013-06-04 06:07:00,
2013-06-03 23:12:00,67.3,49.1,29.72,SSE,160,0.0,1.0,52,0.00,,CLR,0.00,VWS V14.01,2013-06-04 06:12:00,
2013-06-03 23:17:00,67.3,49.1,29.72,SSE,155,0.0,1.0,52,0.00,,CLR,0.00,VWS V14.01,2013-06-04 06:17:00,
2013-06-03 23:22:00,67.2,49.0,29.72,SSE,150,0.0,1.0,52,0.00,,CLR,0.00,VWS V14.01,2013-06-04 06:22:00,
2013-06-03 23:27:00,67.2,49.0,29.72,SE,145,0.0,1.0,52,0.00,,CLR,0.00,VWS V14.01,2013-06-04 06:27:00,
2013-06-03 23:32:00,67.0,48.8,29.72,South,172,0.0,1.0,52,0.00,,CLR,0.00,VWS V14.01,2013-06-04 06:32:00,
2013-06-03 23:38:00,67.0,49.3,29.72,South,169,0.0,1.0,53,0.00,,CLR,0.00,VWS V14.01,2013-06-04 06:38:00,
2013-06-03 23:43:00,67.0,48.8,29.72,South,170,0.0,1.0,52,0.00,,CLR,0.00,VWS V14.01,2013-06-04 06:43:00,
2013-06-03 23:48:00,67.2,49.0,29.72,South,172,0.0,1.0,52,0.00,,CLR,0.00,VWS V14.01,2013-06-04 06:48:00,
2013-06-03 23:53:00,67.1,48.9,29.72,South,173,0.0,1.0,52,0.00,,CLR,0.00,VWS V14.01,2013-06-04 06:53:00,
2013-06-03 23:58:00,67.1,48.9,29.72,South,181,0.0,1.0,52,0.00,,CLR,0.00,VWS V14.01,2013-06-04 06:58:00,